Regional Weather Roundup
Issued by NWS Huntsville, AL

Home | Current Version | Previous Version | Text Only | Print | Product List | Glossary On
Versions: 1 2 3 4 5 6 7 8 9 10 11 12 13 14 15 16 17 18 19 20 21 22 23 24 25 26 27 28 29 30 31 32 33 34 35 36 37 38 39 40 41 42 43 44 45 46 47 48 49 50
000
ASUS44 KHUN 061010
RWRHUN

WEATHER ROUNDUP FOR THE TENNESSEE VALLEY
NATIONAL WEATHER SERVICE HUNTSVILLE AL
500 AM CDT FRI MAY 06 2016

ALZ001>004-061100-
NORTHWEST ALABAMA

CITY           SKY/WX    TMP DP  RH WIND       PRES   REMARKS
COURTLAND HCN    N/A     46 N/A N/A CALM        N/A
RUSSELLVILLE     N/A     39 N/A N/A MISG        N/A
SHOALS AIRPORT CLEAR     48  42  80 W6        30.02R
SHOALS TVA RES   N/A     45 N/A N/A MISG        N/A
$$

ALZ005>007-016-061100-
NORTH CENTRAL ALABAMA

CITY           SKY/WX    TMP DP  RH WIND       PRES   REMARKS
CULLMAN AG STN   N/A     46 N/A N/A N3          N/A
DECATUR AP     CLEAR     45  42  89 NW6       29.99R
HUNTSVILLE AP  CLEAR     45  40  82 W3        29.98R
HUN NWS/UAH      N/A     48  42  79 NW2         N/A
MERIDIANVILLE  CLEAR     41  37  87 CALM      29.98R
VINEMONT AP    FAIR      41  40  95 CALM      30.00R
$$

ALZ008>010-061100-
NORTHEAST ALABAMA

CITY           SKY/WX    TMP DP  RH WIND       PRES   REMARKS
ALBERTVILLE    CLEAR     46  46 100 W3        29.95R
FORT PAYNE     CLEAR     37  36  93 CALM      29.95R
SCOTTSBORO AP  CLEAR     45  45 100 CALM      29.96R
SCOTTSBORO HCN   N/A     43 N/A N/A MISG        N/A
VALLEY HEAD      N/A     37 N/A N/A MISG        N/A
$$

TNZ076-096-097-061100-
SOUTHEASTERN MIDDLE TENNESSEE

CITY           SKY/WX    TMP DP  RH WIND       PRES   REMARKS
TULLAHOMA      CLEAR     43  41  93 W3        29.97R
WINCHESTER     CLEAR     39  37  93 CALM      29.97R
$$

...SURROUNDING SITES...

CITY           SKY/WX    TMP DP  RH WIND       PRES   REMARKS
ATLANTA        PTCLDY    46  40  79 NW9       29.88R
ANNISTON       CLEAR     45  41  86 W6        29.95S
BIRMINGHAM     CLEAR     46  43  89 CALM      30.00R
CHATTANOOGA    CLEAR     44  41  89 CALM      29.93R
DALTON         PTCLDY    43  43 100 NW5       29.92R
GADSDEN        CLEAR     42  41  96 W3        29.96R
GOLDEN TRNGL     N/A     46  43  87 W5        30.02R
HALEYVILLE     FAIR      42  41  96 CALM      30.02R
JACKSON TN     CLEAR     43  41  93 SW3       30.03R
MEMPHIS        PTCLDY    51  44  77 CALM      30.06R
NASHVILLE      CLEAR     48  43  82 W5        29.98R
OXFORD MS      FAIR      41  41 100 CALM      30.07R
ROME           CLEAR     48  42  80 N7        29.91S
SAVANNAH       CLEAR     41  41 100 CALM      30.02R
TUPELO         CLEAR     47  41  80 CALM      30.03R
TUSCALOOSA     CLEAR     47  43  86 NW3       30.01R
$$

...GULF COAST WEATHER...

CITY           SKY/WX    TMP DP  RH WIND       PRES   REMARKS
GULFPORT       CLEAR     54  44  69 NW6       29.98R
PASCAGOULA     CLEAR     52  45  77 N3        29.98R
MOBILE         CLEAR     53  44  71 N7        29.98R
GULF SHORES    SUNNY     55  44  67 N5        29.95R
DESTIN         CLEAR     59  46  62 N10G18    29.94R
APPALACHICOLA  CLEAR     55  46  71 NE7       29.91R
$$




USA.gov is the U.S. government's official web portal to all federal, state and local government web resources and services.